Location: Orange
(33.2833°S, 149.1000°E)
Time: 19:13:59
(UTC+11:00)

Hubble Space Telescope - Pass Details

Date: 02 October 2022
Orbit: 530 x 534 km, 28.5° (Epoch: 04 December)

Event Time Altitude Azimuth Distance (km) Brightness Sun altitude
Exits shadow 05:04:25 31° 358° (N) 949 1.8 -20.4°
Maximum altitude 05:04:52 32° 12° (NNE) 931 1.9 -20.3°
Drops below altitude 10° 05:08:35 10° 75° (ENE) 1,790 4.2 -19.6°
Sets 05:11:00 0° 85° (E) 2,682 5.6 -19.1°
